Weather History for LKMT - October, 2011

Change the Weather History Date:

Saturday, October 8, 2011

  Actual Average (EPKT) Record (EPKT)
Temperature  
Mean Temperature 48 °F -  
Max Temperature 54 °F 54 °F 68 °F (2005)
Min Temperature 41 °F 38 °F 33 °F (2007)
Degree Days  
Heating Degree Days 18    
Moisture  
Dew Point 41 °F    
Average Humidity 83    
Maximum Humidity 100    
Minimum Humidity 53    
Precipitation  
Precipitation 0.02 in 0.06 in - ()
Sea Level Pressure  
Sea Level Pressure 29.76 in    
Wind  
Wind Speed 9 mph ()    
Max Wind Speed 16 mph    
Max Gust Speed -    
Visibility 6.6 miles    
Events Rain    
Averages and records for this station are not official NWS values.
T = Trace of Precipitation, MM = Missing Value Source: Averaged Metar Reports

Daily Weather History Graph

Daily Weather History Graph

Search for Another Location

Airport or City:

Trip Planner

Search our weather history database for the weather conditions in past years. The results will help you decide how hot, cold, wet, or windy it might be!

Date:

Astronomy

Oct. 08, 2011 Rise Set
Actual Time 6:57 AM CEST 6:12 PM CEST
Civil Twilight 6:25 AM CEST 6:44 PM CEST
Nautical Twilight 5:47 AM CEST 7:21 PM CEST
Astronomical Twilight 5:10 AM CEST 7:58 PM CEST
Moon 4:28 PM CEST (10/8) 3:10 AM CEST (10/8)
Length of Visible Light 12h 19m
Length of Day
11h 14m
Waxing Gibbous, 88% of the Moon is Illuminated
Oct 8
Waxing Gibbous
Oct 12
Full
Oct 20
Last Quarter
Oct 26
New
Nov 2
First Quarter

Hourly Weather History & Observations

Time (CEST) Temp. Windchill Dew Point Humidity Pressure Visibility Wind Dir Wind Speed Gust Speed Precip Events Conditions
12:00 AM 44.6 °F 42.2 °F 42.8 °F 93% 29.74 in 6.2 mi SSW 4.6 mph - N/A   Partly Cloudy
12:30 AM 42.8 °F 41.1 °F 42.8 °F 100% 29.74 in 6.2 mi SW 3.5 mph - N/A   Scattered Clouds
1:00 AM 42.8 °F 39.3 °F 42.8 °F 100% 29.74 in 6.2 mi SW 5.8 mph - N/A   Overcast
1:30 AM 46.4 °F 42.9 °F 42.8 °F 87% 29.74 in 6.2 mi SW 6.9 mph - N/A   Overcast
2:00 AM 46 °F - 43 °F 85% 29.78 in 9 mi SW 8.9 mph - -   Mostly Cloudy
2:00 AM 46.4 °F 42.4 °F 42.8 °F 87% 29.74 in 6.2 mi SW 8.1 mph - N/A   Overcast
2:30 AM 46.4 °F 42.4 °F 42.8 °F 87% 29.74 in 6.2 mi SW 8.1 mph - N/A   Overcast
3:00 AM 44.6 °F 40.2 °F 41.0 °F 87% 29.74 in 6.2 mi SW 8.1 mph - N/A   Overcast
3:30 AM 44.6 °F 39.2 °F 42.8 °F 93% 29.74 in 6.2 mi SSW 10.4 mph - N/A   Overcast
4:00 AM 44.6 °F 39.2 °F 41.0 °F 87% 29.71 in 6.2 mi SSW 10.4 mph - N/A   Overcast
4:30 AM 44.6 °F 39.7 °F 41.0 °F 87% 29.71 in - SSW 9.2 mph - N/A   Clear
5:00 AM 42.8 °F 37.0 °F 39.2 °F 87% 29.71 in 6.2 mi SW 10.4 mph - N/A   Mostly Cloudy
5:30 AM 42.8 °F 36.2 °F 39.2 °F 87% 29.71 in 6.2 mi SSW 12.7 mph - N/A   Partly Cloudy
6:00 AM 42.8 °F 36.2 °F 39.2 °F 87% 29.71 in 6.2 mi SSW 12.7 mph - N/A   Scattered Clouds
6:30 AM 44.6 °F 38.1 °F 41.0 °F 87% 29.71 in 6.2 mi SW 13.8 mph - N/A   Overcast
7:00 AM 42.8 °F 35.4 °F 41.0 °F 93% 29.71 in 6.2 mi SW 15.0 mph - N/A Rain Light Rain Showers
7:30 AM 44.6 °F 38.1 °F 41.0 °F 87% 29.71 in 6.2 mi SSW 13.8 mph - N/A Rain Light Rain Showers
8:00 AM 44 °F - 42 °F 89% 29.75 in 6 mi SW 13.4 mph - - Rain Light Rain Showers
8:00 AM 44.6 °F 38.4 °F 41.0 °F 87% 29.71 in 6.2 mi SW 12.7 mph - N/A Rain Light Rain Showers
8:30 AM 44.6 °F 38.8 °F 42.8 °F 93% 29.74 in 6.2 mi SW 11.5 mph - N/A   Overcast
9:00 AM 46.4 °F 40.4 °F 42.8 °F 87% 29.74 in 6.2 mi SW 13.8 mph - N/A   Mostly Cloudy
9:30 AM 44.6 °F 38.1 °F 42.8 °F 93% 29.74 in 6.2 mi SW 13.8 mph - N/A Rain Light Rain Showers
10:00 AM 46.4 °F 40.1 °F 42.8 °F 87% 29.74 in 6.2 mi SW 15.0 mph - N/A Rain Light Rain Showers
10:30 AM 46.4 °F 40.1 °F 44.6 °F 93% 29.74 in 6.2 mi SW 15.0 mph - N/A Rain Light Rain Showers
11:00 AM 48.2 °F - 44.6 °F 87% 29.74 in 6.2 mi SW 12.7 mph - N/A   Overcast
11:30 AM 48.2 °F - 44.6 °F 87% 29.74 in 6.2 mi SW 12.7 mph - N/A   Overcast
12:00 PM 48.2 °F - 44.6 °F 87% 29.74 in 6.2 mi SW 16.1 mph - N/A   Mostly Cloudy
12:30 PM 50.0 °F - 44.6 °F 82% 29.74 in 6.2 mi SW 12.7 mph - N/A   Partly Cloudy
1:00 PM 51.8 °F - 44.6 °F 76% 29.74 in 6.2 mi SW 10.4 mph - N/A   Scattered Clouds
1:30 PM 53.6 °F - 42.8 °F 67% 29.74 in 6.2 mi SW 13.8 mph - N/A   Scattered Clouds
2:00 PM 52 °F - 40 °F 53% 29.75 in 16 mi WSW 11.2 mph - -   Partly Cloudy
2:00 PM 51.8 °F - 41.0 °F 67% 29.74 in 6.2 mi West 11.5 mph - N/A   Scattered Clouds
2:30 PM 53.6 °F - 42.8 °F 67% 29.74 in 6.2 mi WSW 12.7 mph - N/A   Partly Cloudy
3:00 PM 51.8 °F - 41.0 °F 67% 29.74 in 6.2 mi SW 11.5 mph - N/A   Mostly Cloudy
3:30 PM 51.8 °F - 41.0 °F 67% 29.74 in 6.2 mi WSW 13.8 mph - N/A   Scattered Clouds
4:00 PM 51.8 °F - 41.0 °F 67% 29.74 in 6.2 mi WSW 13.8 mph - N/A   Partly Cloudy
4:30 PM 50.0 °F - 41.0 °F 71% 29.74 in 6.2 mi WSW 11.5 mph - N/A   Partly Cloudy
5:00 PM 50.0 °F - 41.0 °F 71% 29.74 in 6.2 mi SW 10.4 mph - N/A   Scattered Clouds
5:30 PM 48.2 °F - 39.2 °F 71% 29.74 in 6.2 mi WNW 11.5 mph - N/A   Scattered Clouds
6:00 PM 46.4 °F 43.5 °F 41.0 °F 81% 29.77 in 6.2 mi NW 5.8 mph - N/A   Partly Cloudy
6:30 PM 46.4 °F 44.3 °F 39.2 °F 76% 29.77 in 6.2 mi West 4.6 mph - N/A   Partly Cloudy
7:00 PM 44.6 °F 41.4 °F 39.2 °F 81% 29.80 in 6.2 mi SW 5.8 mph - N/A   Mostly Cloudy
7:30 PM 44.6 °F 40.7 °F 39.2 °F 81% 29.80 in 6.2 mi SW 6.9 mph - N/A   Overcast
8:00 PM 45 °F - 40 °F 78% 29.85 in 12 mi SSW 8.9 mph - -   Partly Cloudy
8:00 PM 44.6 °F 40.2 °F 41.0 °F 87% 29.80 in 6.2 mi SSW 8.1 mph - N/A   Mostly Cloudy
8:30 PM 44.6 °F 40.2 °F 41.0 °F 87% 29.83 in 6.2 mi SSW 8.1 mph - N/A   Mostly Cloudy
9:00 PM 44.6 °F 39.7 °F 41.0 °F 87% 29.83 in 6.2 mi SSW 9.2 mph - N/A   Mostly Cloudy
9:30 PM 42.8 °F 39.3 °F 39.2 °F 87% 29.83 in - SSW 5.8 mph - N/A   Clear
10:00 PM 42.8 °F 38.6 °F 39.2 °F 87% 29.83 in - SSW 6.9 mph - N/A   Clear
10:30 PM 42.8 °F 39.3 °F 39.2 °F 87% 29.83 in 6.2 mi SSW 5.8 mph - N/A   Mostly Cloudy
11:00 PM 42.8 °F 38.6 °F 39.2 °F 87% 29.83 in 6.2 mi SSW 6.9 mph - N/A   Partly Cloudy
11:30 PM 41.0 °F 37.1 °F 39.2 °F 93% 29.86 in - SSW 5.8 mph - N/A   Clear